Location: Ahstedt
(52.2048°N, 10.1060°E)
Time: 23:35:37
(UTC+00:00)

Cosmos 2082 Rocket - Pass Details

Date: 18 January 2026
Orbit: 832 x 853 km, 71.0° (Epoch: 9 February)

Event Time Altitude Azimuth Distance (km) Brightness Sun altitude
Exits shadow 04:12:04 46° 357° (N) 1,132 2.7 -27.9°
Maximum altitude 04:13:36 63° 55° (NE) 943 2.5 -27.7°
Drops below altitude 10° 04:19:14 10° 136° (SE) 2,472 5.1 -26.8°
Sets 04:21:43 0° 140° (SE) 3,406 5.9 -26.5°
